Flag for Norway Weather past 2 weeks in Fosnavåg, Norway

Now
44 °F

Quite cool.


Feels Like: N/A
Forecast: 43 / 53 °F
Wind: N/A

Location: Svinoy Fyr


UV Index: 0 (Low)

Visibility: N/A


Pressure: 30.16 "Hg

Humidity: 79%

Dew point: 38 °F

Location of FosnavågLocation

Historic Weather in Fosnavåg

°F

Fosnavåg temperature yesterday

Maximum temperature yesterday: 48 °F (at 2:00 PM)
Minimum temperature yesterday: 43 °F (at 5:00 AM)
Average temperature yesterday: 45 °F

Past Weeks' High & Low Weather Summary

 TemperatureHumidityPressure
High49 °F (Apr 7, 1:00 AM)96% (Apr 7, 5:00 AM)30.30 "Hg (Apr 7, 5:00 AM)
Low36 °F (Apr 14, 8:00 PM)60% (Apr 16, 9:00 AM)28.97 "Hg (Apr 13, 12:00 AM)
Average44 °F81%29.78 "Hg
* Reported Apr 6 2:00 AM — Apr 21 2:00 AM, Fosnavåg, Weather by CustomWeather, © 2014

Note: Actual official high and low records may vary slightly from our data, if they occured in-between our weather recording intervals... More about our weather records

Advertising

Historic Weather Conditions — Data for Previous 24 hours

 ConditionsComfort  
Time TempWeatherWind HumidityBarometerVisibility
2:00 AM
Apr 21
44 °FQuite cool.N/A79%30.16 "HgN/A
1:00 AM44 °FQuite cool.N/A83%30.16 "HgN/A
12:00 AM45 °FQuite cool.N/A77%30.16 "HgN/A
11:00 PM
Apr 20
45 °FCool.N/A70%30.17 "HgN/A
10:00 PM44 °FQuite cool.N/A73%30.17 "HgN/A
9:00 PM45 °FCool.N/A74%30.16 "HgN/A
8:00 PM47 °FCool.N/A69%30.16 "HgN/A
7:00 PM48 °FCool.N/A66%30.16 "HgN/A
6:00 PM47 °FCool.N/A72%30.16 "HgN/A
5:00 PM47 °FCool.N/A77%30.17 "HgN/A
4:00 PM47 °FCool.N/A74%30.18 "HgN/A
3:00 PM47 °FCool.N/A73%30.19 "HgN/A
2:00 PM48 °FCool.N/A74%30.18 "HgN/A
1:00 PM46 °FCool.N/A72%30.19 "HgN/A
12:00 PM46 °FCool.N/A77%30.20 "HgN/A
11:00 AM47 °FCool.N/A74%30.20 "HgN/A
10:00 AM45 °FCool.N/A78%30.21 "HgN/A
9:00 AM45 °FCool.N/A77%30.21 "HgN/A
8:00 AM44 °FQuite cool.N/A83%30.22 "HgN/A
7:00 AM43 °FQuite cool.N/A88%30.22 "HgN/A
6:00 AM43 °FQuite cool.N/A87%30.22 "HgN/A
5:00 AM43 °FQuite cool.N/A84%30.23 "HgN/A
4:00 AM44 °FQuite cool.N/A81%30.23 "HgN/A
3:00 AM44 °FQuite cool.N/A82%30.24 "HgN/A
Weather by CustomWeather, © 2014

See weather overview